(80) Sappho
ephemeris date magn radius delta ra dec elong phase
Today5 Feb 202512.11.900 AU2.876 AU21h21m-09°35'6.7°3.5°
Opposition16 Dec 202510.62.182 AU1.209 AU05h41m+11°56'168.5°5.1°
(80) Sappho - 2025-02-05
astro.vanbuitenen.nl


 
-1 year
-1 month
-1 day
Now
+1 day
+1 month
+1 year

The interactive orbit chart above shows the body's path through the solar system and its position at the given date. Green and blue lines are shown perpendicular to the ecliptic plane: Green if the path is above the ecliptic plane, blue if it is below. (Left-click and drag to rotate the view; Right-click and drag to move the view; Use scroll wheel to zoom in our out.)

The orbital elements of Sappho are:

            e (Eccentricity)                : 0.1996869
            a (Semimajor axis)              : 2.2961889
            i (Inclination)                 : 8.67689
            Ω (Longitude of ascending node) : 218.64391
            ω (Argument of perihelion)      : 139.61339
            M (Mean anomaly)                : 304.00728
            Epoch                           : 2024 Oct 17

            L (Longitude of perihelion)     : 178.58250
            B (Latitude of perihelion)      : 5.60961
            P (Orbital period in years)     : 3.48            
        

The light curve chart below shows the estimated development of the minor planet's magnitude.


The all-sky chart below shows the path of the minor planet over the same period as the light curve. The current position is marked yellow.





The following chart shows the path of the minor planet in the next few days. The field of view is optimized for (~10x50) binoculars and finderscopes. A more printer-friendly version of the same chart can be found below.




Ephemerides:
Date       Time       RA (2000)    DEC (2000)    delta   radius  elong  phase   PA    magn
2025-02-05 00:00 UT   21 21 34.8   -09 35 26     2.876    1.900    6.7    3.5    16   12.1 
2025-02-05 04:44 UT   21 22 03.0   -09 33 20     2.876    1.900    6.6    3.4    15   12.1 
2025-02-06 00:00 UT   21 23 57.6   -09 24 44     2.876    1.899    6.5    3.3    12   12.1 
2025-02-07 00:00 UT   21 26 20.4   -09 13 57     2.875    1.898    6.3    3.2     9   12.1 
2025-02-08 00:00 UT   21 28 43.2   -09 03 04     2.874    1.896    6.1    3.2     6   12.0 
2025-02-09 00:00 UT   21 31 05.8   -08 52 05     2.874    1.895    5.9    3.1     2   12.0 
2025-02-10 00:00 UT   21 33 28.4   -08 41 01     2.873    1.894    5.8    3.0   358   12.0 
2025-02-11 00:00 UT   21 35 51.0   -08 29 51     2.872    1.892    5.7    2.9   354   12.0 
2025-02-12 00:00 UT   21 38 13.4   -08 18 36     2.871    1.891    5.6    2.9   350   12.0 
2025-02-13 00:00 UT   21 40 35.8   -08 07 15     2.870    1.890    5.5    2.9   346   12.0 
2025-02-14 00:00 UT   21 42 58.2   -07 55 49     2.869    1.889    5.5    2.9   342   12.0 
2025-02-15 00:00 UT   21 45 20.4   -07 44 18     2.868    1.887    5.5    2.9   338   12.0 
2025-02-16 00:00 UT   21 47 42.6   -07 32 42     2.867    1.886    5.5    2.9   334   12.0 
2025-02-17 00:00 UT   21 50 04.8   -07 21 01     2.866    1.885    5.5    2.9   329   12.0 
2025-02-18 00:00 UT   21 52 26.8   -07 09 15     2.865    1.884    5.6    2.9   325   12.0 


    Terminology:
            
    delta:  distance between minor planet and earth in AU
    radius: distance between minor planet and sun in AU
    magn:   magnitude (brightness) estimate    
    ra:     right ascension in hours (24h = 360deg)
    dec:    declination in degrees
    elong:  elongation in degrees (angle sun-earth-minor planet)    
    phase:  phase angle in degrees (angle sun-minor planet-earth)        
    AU:     Astronomical Unit (mean distance between earth and sun: 149597870.7 km
    

Orbital elements provided by the MPC (Minor Planet Center).
Calculations by a modified version of AAPlus, a C# implementation of the AA+ project by PJ Naughter from the algorithms presented in the book "Astronomical Algorithms" by Jean Meeus.
NGC2000 dso catalog and star labels from VizieR as provided by the Strasbourg astronomical Data Center.
Tycho2 catalog from the ESO archive.